<?xml version="1.0" encoding="UTF-8" standalone="no" ?>
<gpx xmlns="http://www.topografix.com/GPX/1/1" xmlns:xsi="http://www.w3.org/2001/XMLSchema-instance" xsi:schemaLocation="http://www.topografix.com/GPX/1/1 http://www.topografix.com/GPX/1/1/gpx.xsd" version="1.1" creator="VisuGPX - https://www.visugpx.com">
  <metadata>
    <name>Grand Tour de la Haute Bruche - J1</name>
  </metadata>
  <trk>
    <name><![CDATA[12769276-Grand Tour de la Haute Bruche - J1]]></name>
    <trkseg>
      <trkpt lat="48.48026" lon="7.21636">
        <ele>311</ele>
        <time>2022-08-04T13:38:52Z</time>
      </trkpt>
      <trkpt lat="48.4801" lon="7.2163">
        <ele>311</ele>
        <time>2022-08-04T13:39:14Z</time>
      </trkpt>
      <trkpt lat="48.47984" lon="7.21629">
        <ele>311</ele>
        <time>2022-08-04T13:39:49Z</time>
      </trkpt>
      <trkpt lat="48.47931" lon="7.21723">
        <ele>311</ele>
        <time>2022-08-04T13:41:38Z</time>
      </trkpt>
      <trkpt lat="48.47893" lon="7.2178">
        <ele>310</ele>
        <time>2022-08-04T13:42:49Z</time>
      </trkpt>
      <trkpt lat="48.47865" lon="7.21827">
        <ele>310</ele>
        <time>2022-08-04T13:43:45Z</time>
      </trkpt>
      <trkpt lat="48.47847" lon="7.2185">
        <ele>310</ele>
        <time>2022-08-04T13:44:17Z</time>
      </trkpt>
      <trkpt lat="48.4786" lon="7.21871">
        <ele>309</ele>
        <time>2022-08-04T13:44:42Z</time>
      </trkpt>
      <trkpt lat="48.47859" lon="7.2188">
        <ele>309</ele>
        <time>2022-08-04T13:44:50Z</time>
      </trkpt>
      <trkpt lat="48.47844" lon="7.21897">
        <ele>309</ele>
        <time>2022-08-04T13:45:15Z</time>
      </trkpt>
      <trkpt lat="48.47846" lon="7.21911">
        <ele>309</ele>
        <time>2022-08-04T13:45:28Z</time>
      </trkpt>
      <trkpt lat="48.47852" lon="7.21924">
        <ele>309</ele>
        <time>2022-08-04T13:45:42Z</time>
      </trkpt>
      <trkpt lat="48.4784" lon="7.21949">
        <ele>313</ele>
        <time>2022-08-04T13:46:09Z</time>
      </trkpt>
      <trkpt lat="48.4782" lon="7.21965">
        <ele>316</ele>
        <time>2022-08-04T13:46:39Z</time>
      </trkpt>
      <trkpt lat="48.47791" lon="7.21978">
        <ele>320</ele>
        <time>2022-08-04T13:47:20Z</time>
      </trkpt>
      <trkpt lat="48.47776" lon="7.21988">
        <ele>323</ele>
        <time>2022-08-04T13:47:42Z</time>
      </trkpt>
      <trkpt lat="48.47765" lon="7.22003">
        <ele>328</ele>
        <time>2022-08-04T13:48:02Z</time>
      </trkpt>
      <trkpt lat="48.47732" lon="7.21997">
        <ele>334</ele>
        <time>2022-08-04T13:48:46Z</time>
      </trkpt>
      <trkpt lat="48.47696" lon="7.21996">
        <ele>348</ele>
        <time>2022-08-04T13:49:34Z</time>
      </trkpt>
      <trkpt lat="48.47702" lon="7.22017">
        <ele>352</ele>
        <time>2022-08-04T13:49:54Z</time>
      </trkpt>
      <trkpt lat="48.47719" lon="7.22042">
        <ele>356</ele>
        <time>2022-08-04T13:50:26Z</time>
      </trkpt>
      <trkpt lat="48.47737" lon="7.22058">
        <ele>356</ele>
        <time>2022-08-04T13:50:54Z</time>
      </trkpt>
      <trkpt lat="48.47721" lon="7.22069">
        <ele>365</ele>
        <time>2022-08-04T13:51:17Z</time>
      </trkpt>
      <trkpt lat="48.47703" lon="7.22056">
        <ele>366</ele>
        <time>2022-08-04T13:51:44Z</time>
      </trkpt>
      <trkpt lat="48.47674" lon="7.22044">
        <ele>371</ele>
        <time>2022-08-04T13:52:24Z</time>
      </trkpt>
      <trkpt lat="48.47598" lon="7.2191">
        <ele>369</ele>
        <time>2022-08-04T13:55:00Z</time>
      </trkpt>
      <trkpt lat="48.47545" lon="7.21856">
        <ele>361</ele>
        <time>2022-08-04T13:56:25Z</time>
      </trkpt>
      <trkpt lat="48.47523" lon="7.21873">
        <ele>373</ele>
        <time>2022-08-04T13:56:58Z</time>
      </trkpt>
      <trkpt lat="48.47426" lon="7.21873">
        <ele>379</ele>
        <time>2022-08-04T13:59:08Z</time>
      </trkpt>
      <trkpt lat="48.47356" lon="7.21893">
        <ele>379</ele>
        <time>2022-08-04T14:00:43Z</time>
      </trkpt>
      <trkpt lat="48.47286" lon="7.21918">
        <ele>372</ele>
        <time>2022-08-04T14:02:19Z</time>
      </trkpt>
      <trkpt lat="48.47272" lon="7.21937">
        <ele>371</ele>
        <time>2022-08-04T14:02:44Z</time>
      </trkpt>
      <trkpt lat="48.47279" lon="7.21973">
        <ele>381</ele>
        <time>2022-08-04T14:03:17Z</time>
      </trkpt>
      <trkpt lat="48.47289" lon="7.22083">
        <ele>398</ele>
        <time>2022-08-04T14:04:55Z</time>
      </trkpt>
      <trkpt lat="48.47297" lon="7.22128">
        <ele>404</ele>
        <time>2022-08-04T14:05:37Z</time>
      </trkpt>
      <trkpt lat="48.47314" lon="7.22182">
        <ele>411</ele>
        <time>2022-08-04T14:06:29Z</time>
      </trkpt>
      <trkpt lat="48.47317" lon="7.22218">
        <ele>414</ele>
        <time>2022-08-04T14:07:02Z</time>
      </trkpt>
      <trkpt lat="48.47333" lon="7.22248">
        <ele>415</ele>
        <time>2022-08-04T14:07:36Z</time>
      </trkpt>
      <trkpt lat="48.4735" lon="7.22297">
        <ele>419</ele>
        <time>2022-08-04T14:08:25Z</time>
      </trkpt>
      <trkpt lat="48.47374" lon="7.22324">
        <ele>419</ele>
        <time>2022-08-04T14:09:05Z</time>
      </trkpt>
      <trkpt lat="48.47386" lon="7.22347">
        <ele>418</ele>
        <time>2022-08-04T14:09:30Z</time>
      </trkpt>
      <trkpt lat="48.47368" lon="7.2235">
        <ele>420</ele>
        <time>2022-08-04T14:09:55Z</time>
      </trkpt>
      <trkpt lat="48.47345" lon="7.22375">
        <ele>425</ele>
        <time>2022-08-04T14:10:32Z</time>
      </trkpt>
      <trkpt lat="48.47329" lon="7.22382">
        <ele>428</ele>
        <time>2022-08-04T14:10:55Z</time>
      </trkpt>
      <trkpt lat="48.4729" lon="7.22395">
        <ele>436</ele>
        <time>2022-08-04T14:11:48Z</time>
      </trkpt>
      <trkpt lat="48.47265" lon="7.22393">
        <ele>441</ele>
        <time>2022-08-04T14:12:21Z</time>
      </trkpt>
      <trkpt lat="48.47245" lon="7.22415">
        <ele>447</ele>
        <time>2022-08-04T14:12:54Z</time>
      </trkpt>
      <trkpt lat="48.47148" lon="7.22414">
        <ele>457</ele>
        <time>2022-08-04T14:15:04Z</time>
      </trkpt>
      <trkpt lat="48.47093" lon="7.22404">
        <ele>466</ele>
        <time>2022-08-04T14:16:18Z</time>
      </trkpt>
      <trkpt lat="48.47076" lon="7.22387">
        <ele>467</ele>
        <time>2022-08-04T14:16:45Z</time>
      </trkpt>
      <trkpt lat="48.47061" lon="7.22354">
        <ele>466</ele>
        <time>2022-08-04T14:17:20Z</time>
      </trkpt>
      <trkpt lat="48.47042" lon="7.22303">
        <ele>464</ele>
        <time>2022-08-04T14:18:12Z</time>
      </trkpt>
      <trkpt lat="48.47022" lon="7.22282">
        <ele>467</ele>
        <time>2022-08-04T14:18:45Z</time>
      </trkpt>
      <trkpt lat="48.46992" lon="7.22265">
        <ele>472</ele>
        <time>2022-08-04T14:19:27Z</time>
      </trkpt>
      <trkpt lat="48.46968" lon="7.22263">
        <ele>474</ele>
        <time>2022-08-04T14:19:59Z</time>
      </trkpt>
      <trkpt lat="48.46945" lon="7.22272">
        <ele>479</ele>
        <time>2022-08-04T14:20:31Z</time>
      </trkpt>
      <trkpt lat="48.4687" lon="7.22353">
        <ele>495</ele>
        <time>2022-08-04T14:22:34Z</time>
      </trkpt>
      <trkpt lat="48.4685" lon="7.22389">
        <ele>499</ele>
        <time>2022-08-04T14:23:16Z</time>
      </trkpt>
      <trkpt lat="48.46813" lon="7.22489">
        <ele>510</ele>
        <time>2022-08-04T14:24:57Z</time>
      </trkpt>
      <trkpt lat="48.46789" lon="7.22562">
        <ele>514</ele>
        <time>2022-08-04T14:26:09Z</time>
      </trkpt>
      <trkpt lat="48.46772" lon="7.22601">
        <ele>516</ele>
        <time>2022-08-04T14:26:51Z</time>
      </trkpt>
      <trkpt lat="48.46746" lon="7.22626">
        <ele>521</ele>
        <time>2022-08-04T14:27:32Z</time>
      </trkpt>
      <trkpt lat="48.46743" lon="7.22719">
        <ele>517</ele>
        <time>2022-08-04T14:28:54Z</time>
      </trkpt>
      <trkpt lat="48.4658" lon="7.22705">
        <ele>549</ele>
        <time>2022-08-04T14:32:32Z</time>
      </trkpt>
      <trkpt lat="48.46535" lon="7.22754">
        <ele>554</ele>
        <time>2022-08-04T14:33:46Z</time>
      </trkpt>
      <trkpt lat="48.46472" lon="7.2281">
        <ele>558</ele>
        <time>2022-08-04T14:35:24Z</time>
      </trkpt>
      <trkpt lat="48.46421" lon="7.22827">
        <ele>568</ele>
        <time>2022-08-04T14:36:33Z</time>
      </trkpt>
      <trkpt lat="48.46385" lon="7.22847">
        <ele>573</ele>
        <time>2022-08-04T14:37:25Z</time>
      </trkpt>
      <trkpt lat="48.46365" lon="7.22875">
        <ele>569</ele>
        <time>2022-08-04T14:38:01Z</time>
      </trkpt>
      <trkpt lat="48.46316" lon="7.22904">
        <ele>573</ele>
        <time>2022-08-04T14:39:11Z</time>
      </trkpt>
      <trkpt lat="48.46281" lon="7.22917">
        <ele>578</ele>
        <time>2022-08-04T14:39:59Z</time>
      </trkpt>
      <trkpt lat="48.46208" lon="7.22927">
        <ele>596</ele>
        <time>2022-08-04T14:41:37Z</time>
      </trkpt>
      <trkpt lat="48.46168" lon="7.22965">
        <ele>599</ele>
        <time>2022-08-04T14:42:40Z</time>
      </trkpt>
      <trkpt lat="48.46139" lon="7.23014">
        <ele>603</ele>
        <time>2022-08-04T14:43:38Z</time>
      </trkpt>
      <trkpt lat="48.46124" lon="7.23054">
        <ele>608</ele>
        <time>2022-08-04T14:44:19Z</time>
      </trkpt>
      <trkpt lat="48.46111" lon="7.23108">
        <ele>611</ele>
        <time>2022-08-04T14:45:10Z</time>
      </trkpt>
      <trkpt lat="48.46113" lon="7.23155">
        <ele>609</ele>
        <time>2022-08-04T14:45:51Z</time>
      </trkpt>
      <trkpt lat="48.46123" lon="7.23219">
        <ele>605</ele>
        <time>2022-08-04T14:46:50Z</time>
      </trkpt>
      <trkpt lat="48.46108" lon="7.23355">
        <ele>618</ele>
        <time>2022-08-04T14:48:52Z</time>
      </trkpt>
      <trkpt lat="48.46087" lon="7.23463">
        <ele>633</ele>
        <time>2022-08-04T14:50:31Z</time>
      </trkpt>
      <trkpt lat="48.46127" lon="7.23561">
        <ele>635</ele>
        <time>2022-08-04T14:52:13Z</time>
      </trkpt>
      <trkpt lat="48.46168" lon="7.23683">
        <ele>649</ele>
        <time>2022-08-04T14:54:14Z</time>
      </trkpt>
      <trkpt lat="48.46194" lon="7.23709">
        <ele>651</ele>
        <time>2022-08-04T14:54:56Z</time>
      </trkpt>
      <trkpt lat="48.46225" lon="7.2373">
        <ele>651</ele>
        <time>2022-08-04T14:55:41Z</time>
      </trkpt>
      <trkpt lat="48.46239" lon="7.23759">
        <ele>655</ele>
        <time>2022-08-04T14:56:13Z</time>
      </trkpt>
      <trkpt lat="48.46272" lon="7.23811">
        <ele>661</ele>
        <time>2022-08-04T14:57:17Z</time>
      </trkpt>
      <trkpt lat="48.46278" lon="7.23847">
        <ele>665</ele>
        <time>2022-08-04T14:57:49Z</time>
      </trkpt>
      <trkpt lat="48.46279" lon="7.23889">
        <ele>665</ele>
        <time>2022-08-04T14:58:27Z</time>
      </trkpt>
      <trkpt lat="48.46246" lon="7.23894">
        <ele>666</ele>
        <time>2022-08-04T14:59:11Z</time>
      </trkpt>
      <trkpt lat="48.4621" lon="7.23936">
        <ele>667</ele>
        <time>2022-08-04T15:00:12Z</time>
      </trkpt>
      <trkpt lat="48.46103" lon="7.24026">
        <ele>670</ele>
        <time>2022-08-04T15:02:55Z</time>
      </trkpt>
      <trkpt lat="48.46077" lon="7.24027">
        <ele>677</ele>
        <time>2022-08-04T15:03:30Z</time>
      </trkpt>
      <trkpt lat="48.46045" lon="7.24051">
        <ele>682</ele>
        <time>2022-08-04T15:04:17Z</time>
      </trkpt>
      <trkpt lat="48.46014" lon="7.24088">
        <ele>684</ele>
        <time>2022-08-04T15:05:10Z</time>
      </trkpt>
      <trkpt lat="48.45977" lon="7.24146">
        <ele>685</ele>
        <time>2022-08-04T15:06:21Z</time>
      </trkpt>
      <trkpt lat="48.45899" lon="7.24203">
        <ele>701</ele>
        <time>2022-08-04T15:08:17Z</time>
      </trkpt>
      <trkpt lat="48.45848" lon="7.24223">
        <ele>708</ele>
        <time>2022-08-04T15:09:27Z</time>
      </trkpt>
      <trkpt lat="48.45807" lon="7.24253">
        <ele>706</ele>
        <time>2022-08-04T15:10:28Z</time>
      </trkpt>
      <trkpt lat="48.45777" lon="7.24259">
        <ele>705</ele>
        <time>2022-08-04T15:11:09Z</time>
      </trkpt>
      <trkpt lat="48.45698" lon="7.24254">
        <ele>702</ele>
        <time>2022-08-04T15:12:54Z</time>
      </trkpt>
      <trkpt lat="48.45646" lon="7.24269">
        <ele>698</ele>
        <time>2022-08-04T15:14:05Z</time>
      </trkpt>
      <trkpt lat="48.45616" lon="7.24293">
        <ele>697</ele>
        <time>2022-08-04T15:14:50Z</time>
      </trkpt>
      <trkpt lat="48.4555" lon="7.24316">
        <ele>699</ele>
        <time>2022-08-04T15:16:21Z</time>
      </trkpt>
      <trkpt lat="48.45521" lon="7.24323">
        <ele>700</ele>
        <time>2022-08-04T15:17:00Z</time>
      </trkpt>
      <trkpt lat="48.45471" lon="7.24323">
        <ele>702</ele>
        <time>2022-08-04T15:18:06Z</time>
      </trkpt>
      <trkpt lat="48.45428" lon="7.24318">
        <ele>703</ele>
        <time>2022-08-04T15:19:04Z</time>
      </trkpt>
      <trkpt lat="48.4537" lon="7.24298">
        <ele>702</ele>
        <time>2022-08-04T15:20:23Z</time>
      </trkpt>
      <trkpt lat="48.45451" lon="7.24365">
        <ele>708</ele>
        <time>2022-08-04T15:22:27Z</time>
      </trkpt>
      <trkpt lat="48.45477" lon="7.24396">
        <ele>710</ele>
        <time>2022-08-04T15:23:11Z</time>
      </trkpt>
      <trkpt lat="48.4551" lon="7.24413">
        <ele>710</ele>
        <time>2022-08-04T15:23:57Z</time>
      </trkpt>
      <trkpt lat="48.45483" lon="7.24623">
        <ele>739</ele>
        <time>2022-08-04T15:27:07Z</time>
      </trkpt>
      <trkpt lat="48.45473" lon="7.24635">
        <ele>743</ele>
        <time>2022-08-04T15:27:24Z</time>
      </trkpt>
      <trkpt lat="48.45484" lon="7.24686">
        <ele>747</ele>
        <time>2022-08-04T15:28:11Z</time>
      </trkpt>
      <trkpt lat="48.45452" lon="7.25071">
        <ele>779</ele>
        <time>2022-08-04T15:33:55Z</time>
      </trkpt>
      <trkpt lat="48.45455" lon="7.25106">
        <ele>780</ele>
        <time>2022-08-04T15:34:26Z</time>
      </trkpt>
      <trkpt lat="48.4545" lon="7.25177">
        <ele>786</ele>
        <time>2022-08-04T15:35:29Z</time>
      </trkpt>
      <trkpt lat="48.45446" lon="7.25308">
        <ele>792</ele>
        <time>2022-08-04T15:37:25Z</time>
      </trkpt>
      <trkpt lat="48.45423" lon="7.25191">
        <ele>793</ele>
        <time>2022-08-04T15:39:13Z</time>
      </trkpt>
      <trkpt lat="48.4539" lon="7.24973">
        <ele>789</ele>
        <time>2022-08-04T15:42:31Z</time>
      </trkpt>
      <trkpt lat="48.45368" lon="7.24973">
        <ele>795</ele>
        <time>2022-08-04T15:43:00Z</time>
      </trkpt>
      <trkpt lat="48.45374" lon="7.2504">
        <ele>799</ele>
        <time>2022-08-04T15:44:00Z</time>
      </trkpt>
      <trkpt lat="48.45388" lon="7.25146">
        <ele>801</ele>
        <time>2022-08-04T15:45:36Z</time>
      </trkpt>
      <trkpt lat="48.45399" lon="7.25209">
        <ele>801</ele>
        <time>2022-08-04T15:46:34Z</time>
      </trkpt>
      <trkpt lat="48.454" lon="7.25274">
        <ele>804</ele>
        <time>2022-08-04T15:47:31Z</time>
      </trkpt>
      <trkpt lat="48.45405" lon="7.25336">
        <ele>804</ele>
        <time>2022-08-04T15:48:26Z</time>
      </trkpt>
      <trkpt lat="48.45406" lon="7.25387">
        <ele>802</ele>
        <time>2022-08-04T15:49:12Z</time>
      </trkpt>
      <trkpt lat="48.4538" lon="7.25456">
        <ele>804</ele>
        <time>2022-08-04T15:50:22Z</time>
      </trkpt>
      <trkpt lat="48.45356" lon="7.25483">
        <ele>807</ele>
        <time>2022-08-04T15:51:02Z</time>
      </trkpt>
      <trkpt lat="48.4528" lon="7.2553">
        <ele>812</ele>
        <time>2022-08-04T15:52:51Z</time>
      </trkpt>
      <trkpt lat="48.45255" lon="7.25532">
        <ele>813</ele>
        <time>2022-08-04T15:53:25Z</time>
      </trkpt>
      <trkpt lat="48.45225" lon="7.25527">
        <ele>816</ele>
        <time>2022-08-04T15:54:05Z</time>
      </trkpt>
      <trkpt lat="48.45191" lon="7.25533">
        <ele>817</ele>
        <time>2022-08-04T15:54:51Z</time>
      </trkpt>
      <trkpt lat="48.4516" lon="7.25533">
        <ele>819</ele>
        <time>2022-08-04T15:55:32Z</time>
      </trkpt>
      <trkpt lat="48.45128" lon="7.25544">
        <ele>821</ele>
        <time>2022-08-04T15:56:16Z</time>
      </trkpt>
      <trkpt lat="48.45047" lon="7.25628">
        <ele>815</ele>
        <time>2022-08-04T15:58:27Z</time>
      </trkpt>
      <trkpt lat="48.45017" lon="7.25643">
        <ele>820</ele>
        <time>2022-08-04T15:59:09Z</time>
      </trkpt>
      <trkpt lat="48.44967" lon="7.25695">
        <ele>822</ele>
        <time>2022-08-04T16:00:30Z</time>
      </trkpt>
      <trkpt lat="48.44939" lon="7.2574">
        <ele>823</ele>
        <time>2022-08-04T16:01:25Z</time>
      </trkpt>
      <trkpt lat="48.44899" lon="7.25781">
        <ele>833</ele>
        <time>2022-08-04T16:02:30Z</time>
      </trkpt>
      <trkpt lat="48.44875" lon="7.25689">
        <ele>839</ele>
        <time>2022-08-04T16:03:57Z</time>
      </trkpt>
      <trkpt lat="48.44867" lon="7.25625">
        <ele>838</ele>
        <time>2022-08-04T16:04:55Z</time>
      </trkpt>
      <trkpt lat="48.44829" lon="7.25686">
        <ele>844</ele>
        <time>2022-08-04T16:06:09Z</time>
      </trkpt>
      <trkpt lat="48.4476" lon="7.25714">
        <ele>845</ele>
        <time>2022-08-04T16:07:44Z</time>
      </trkpt>
      <trkpt lat="48.44758" lon="7.25765">
        <ele>852</ele>
        <time>2022-08-04T16:08:29Z</time>
      </trkpt>
      <trkpt lat="48.44764" lon="7.25828">
        <ele>860</ele>
        <time>2022-08-04T16:09:26Z</time>
      </trkpt>
      <trkpt lat="48.44792" lon="7.25887">
        <ele>865</ele>
        <time>2022-08-04T16:10:30Z</time>
      </trkpt>
      <trkpt lat="48.44811" lon="7.25999">
        <ele>880</ele>
        <time>2022-08-04T16:12:12Z</time>
      </trkpt>
      <trkpt lat="48.4488" lon="7.26219">
        <ele>891</ele>
        <time>2022-08-04T16:15:48Z</time>
      </trkpt>
      <trkpt lat="48.44917" lon="7.26425">
        <ele>905</ele>
        <time>2022-08-04T16:18:56Z</time>
      </trkpt>
      <trkpt lat="48.4494" lon="7.26568">
        <ele>922</ele>
        <time>2022-08-04T16:21:07Z</time>
      </trkpt>
      <trkpt lat="48.44966" lon="7.26678">
        <ele>929</ele>
        <time>2022-08-04T16:22:50Z</time>
      </trkpt>
      <trkpt lat="48.44986" lon="7.26797">
        <ele>934</ele>
        <time>2022-08-04T16:24:39Z</time>
      </trkpt>
      <trkpt lat="48.44999" lon="7.26919">
        <ele>941</ele>
        <time>2022-08-04T16:26:28Z</time>
      </trkpt>
      <trkpt lat="48.45005" lon="7.27008">
        <ele>944</ele>
        <time>2022-08-04T16:27:47Z</time>
      </trkpt>
      <trkpt lat="48.44992" lon="7.2708">
        <ele>951</ele>
        <time>2022-08-04T16:28:53Z</time>
      </trkpt>
      <trkpt lat="48.44973" lon="7.27159">
        <ele>957</ele>
        <time>2022-08-04T16:30:08Z</time>
      </trkpt>
      <trkpt lat="48.44948" lon="7.27318">
        <ele>971</ele>
        <time>2022-08-04T16:32:32Z</time>
      </trkpt>
      <trkpt lat="48.44933" lon="7.27452">
        <ele>975</ele>
        <time>2022-08-04T16:34:33Z</time>
      </trkpt>
      <trkpt lat="48.44935" lon="7.27624">
        <ele>972</ele>
        <time>2022-08-04T16:37:05Z</time>
      </trkpt>
      <trkpt lat="48.4493" lon="7.27714">
        <ele>973</ele>
        <time>2022-08-04T16:38:25Z</time>
      </trkpt>
      <trkpt lat="48.44914" lon="7.27796">
        <ele>978</ele>
        <time>2022-08-04T16:39:41Z</time>
      </trkpt>
      <trkpt lat="48.44811" lon="7.27886">
        <ele>994</ele>
        <time>2022-08-04T16:42:19Z</time>
      </trkpt>
      <trkpt lat="48.4474" lon="7.28099">
        <ele>987</ele>
        <time>2022-08-04T16:45:50Z</time>
      </trkpt>
      <trkpt lat="48.44728" lon="7.28122">
        <ele>986</ele>
        <time>2022-08-04T16:46:16Z</time>
      </trkpt>
      <trkpt lat="48.44741" lon="7.28188">
        <ele>991</ele>
        <time>2022-08-04T16:47:17Z</time>
      </trkpt>
      <trkpt lat="48.44767" lon="7.28248">
        <ele>994</ele>
        <time>2022-08-04T16:48:21Z</time>
      </trkpt>
      <trkpt lat="48.447" lon="7.28355">
        <ele>1003</ele>
        <time>2022-08-04T16:50:31Z</time>
      </trkpt>
      <trkpt lat="48.44648" lon="7.28409">
        <ele>1009</ele>
        <time>2022-08-04T16:51:55Z</time>
      </trkpt>
      <trkpt lat="48.44614" lon="7.28486">
        <ele>1015</ele>
        <time>2022-08-04T16:53:17Z</time>
      </trkpt>
      <trkpt lat="48.4458" lon="7.28532">
        <ele>1016</ele>
        <time>2022-08-04T16:54:18Z</time>
      </trkpt>
      <trkpt lat="48.44554" lon="7.28542">
        <ele>1018</ele>
        <time>2022-08-04T16:54:54Z</time>
      </trkpt>
      <trkpt lat="48.44533" lon="7.28603">
        <ele>1025</ele>
        <time>2022-08-04T16:55:55Z</time>
      </trkpt>
      <trkpt lat="48.44455" lon="7.28592">
        <ele>1026</ele>
        <time>2022-08-04T16:57:39Z</time>
      </trkpt>
      <trkpt lat="48.44398" lon="7.28568">
        <ele>1024</ele>
        <time>2022-08-04T16:58:58Z</time>
      </trkpt>
      <trkpt lat="48.44367" lon="7.28578">
        <ele>1022</ele>
        <time>2022-08-04T16:59:40Z</time>
      </trkpt>
      <trkpt lat="48.4433" lon="7.28596">
        <ele>1020</ele>
        <time>2022-08-04T17:00:32Z</time>
      </trkpt>
      <trkpt lat="48.44195" lon="7.28787">
        <ele>1010</ele>
        <time>2022-08-04T17:04:39Z</time>
      </trkpt>
      <trkpt lat="48.44143" lon="7.28837">
        <ele>1007</ele>
        <time>2022-08-04T17:06:02Z</time>
      </trkpt>
      <trkpt lat="48.44059" lon="7.28906">
        <ele>1004</ele>
        <time>2022-08-04T17:08:09Z</time>
      </trkpt>
      <trkpt lat="48.44015" lon="7.28926">
        <ele>1001</ele>
        <time>2022-08-04T17:09:11Z</time>
      </trkpt>
      <trkpt lat="48.43967" lon="7.28958">
        <ele>1002</ele>
        <time>2022-08-04T17:10:21Z</time>
      </trkpt>
      <trkpt lat="48.4391" lon="7.28988">
        <ele>1002</ele>
        <time>2022-08-04T17:11:41Z</time>
      </trkpt>
      <trkpt lat="48.4387" lon="7.29021">
        <ele>1003</ele>
        <time>2022-08-04T17:12:42Z</time>
      </trkpt>
      <trkpt lat="48.43822" lon="7.29098">
        <ele>1004</ele>
        <time>2022-08-04T17:14:16Z</time>
      </trkpt>
      <trkpt lat="48.43751" lon="7.29244">
        <ele>1000</ele>
        <time>2022-08-04T17:16:56Z</time>
      </trkpt>
      <trkpt lat="48.43687" lon="7.29467">
        <ele>1000</ele>
        <time>2022-08-04T17:20:31Z</time>
      </trkpt>
      <trkpt lat="48.43633" lon="7.29539">
        <ele>999</ele>
        <time>2022-08-04T17:22:07Z</time>
      </trkpt>
      <trkpt lat="48.43572" lon="7.29535">
        <ele>1000</ele>
        <time>2022-08-04T17:23:29Z</time>
      </trkpt>
      <trkpt lat="48.43514" lon="7.2956">
        <ele>1001</ele>
        <time>2022-08-04T17:24:49Z</time>
      </trkpt>
      <trkpt lat="48.43476" lon="7.29569">
        <ele>1002</ele>
        <time>2022-08-04T17:25:41Z</time>
      </trkpt>
      <trkpt lat="48.43436" lon="7.29575">
        <ele>1003</ele>
        <time>2022-08-04T17:26:34Z</time>
      </trkpt>
      <trkpt lat="48.43413" lon="7.29591">
        <ele>1005</ele>
        <time>2022-08-04T17:27:08Z</time>
      </trkpt>
      <trkpt lat="48.43266" lon="7.29723">
        <ele>1010</ele>
        <time>2022-08-04T17:30:56Z</time>
      </trkpt>
      <trkpt lat="48.4321" lon="7.29791">
        <ele>1010</ele>
        <time>2022-08-04T17:32:32Z</time>
      </trkpt>
      <trkpt lat="48.43125" lon="7.29867">
        <ele>1011</ele>
        <time>2022-08-04T17:34:44Z</time>
      </trkpt>
      <trkpt lat="48.4308" lon="7.29916">
        <ele>1013</ele>
        <time>2022-08-04T17:35:58Z</time>
      </trkpt>
      <trkpt lat="48.43008" lon="7.30001">
        <ele>1017</ele>
        <time>2022-08-04T17:38:00Z</time>
      </trkpt>
      <trkpt lat="48.42977" lon="7.30023">
        <ele>1019</ele>
        <time>2022-08-04T17:38:46Z</time>
      </trkpt>
      <trkpt lat="48.42932" lon="7.29839">
        <ele>1022</ele>
        <time>2022-08-04T17:41:40Z</time>
      </trkpt>
      <trkpt lat="48.42853" lon="7.29621">
        <ele>1021</ele>
        <time>2022-08-04T17:45:20Z</time>
      </trkpt>
      <trkpt lat="48.42788" lon="7.29485">
        <ele>1023</ele>
        <time>2022-08-04T17:47:48Z</time>
      </trkpt>
      <trkpt lat="48.42725" lon="7.29425">
        <ele>1021</ele>
        <time>2022-08-04T17:49:28Z</time>
      </trkpt>
      <trkpt lat="48.42709" lon="7.29426">
        <ele>1022</ele>
        <time>2022-08-04T17:49:49Z</time>
      </trkpt>
      <trkpt lat="48.42648" lon="7.29461">
        <ele>1028</ele>
        <time>2022-08-04T17:51:16Z</time>
      </trkpt>
      <trkpt lat="48.42574" lon="7.29532">
        <ele>1034</ele>
        <time>2022-08-04T17:53:13Z</time>
      </trkpt>
      <trkpt lat="48.42512" lon="7.29584">
        <ele>1035</ele>
        <time>2022-08-04T17:54:48Z</time>
      </trkpt>
      <trkpt lat="48.42436" lon="7.29621">
        <ele>1034</ele>
        <time>2022-08-04T17:56:34Z</time>
      </trkpt>
      <trkpt lat="48.42369" lon="7.29627">
        <ele>1035</ele>
        <time>2022-08-04T17:58:04Z</time>
      </trkpt>
      <trkpt lat="48.42309" lon="7.29558">
        <ele>1035</ele>
        <time>2022-08-04T17:59:45Z</time>
      </trkpt>
      <trkpt lat="48.42277" lon="7.29529">
        <ele>1038</ele>
        <time>2022-08-04T18:00:35Z</time>
      </trkpt>
      <trkpt lat="48.42216" lon="7.29498">
        <ele>1042</ele>
        <time>2022-08-04T18:02:00Z</time>
      </trkpt>
      <trkpt lat="48.42153" lon="7.29489">
        <ele>1041</ele>
        <time>2022-08-04T18:03:25Z</time>
      </trkpt>
      <trkpt lat="48.42107" lon="7.29447">
        <ele>1036</ele>
        <time>2022-08-04T18:04:37Z</time>
      </trkpt>
      <trkpt lat="48.42081" lon="7.29445">
        <ele>1035</ele>
        <time>2022-08-04T18:05:11Z</time>
      </trkpt>
      <trkpt lat="48.42045" lon="7.29464">
        <ele>1032</ele>
        <time>2022-08-04T18:06:02Z</time>
      </trkpt>
      <trkpt lat="48.42023" lon="7.29519">
        <ele>1031</ele>
        <time>2022-08-04T18:06:59Z</time>
      </trkpt>
      <trkpt lat="48.41955" lon="7.29462">
        <ele>1024</ele>
        <time>2022-08-04T18:08:43Z</time>
      </trkpt>
      <trkpt lat="48.41912" lon="7.2944">
        <ele>1021</ele>
        <time>2022-08-04T18:09:44Z</time>
      </trkpt>
      <trkpt lat="48.41859" lon="7.29383">
        <ele>1018</ele>
        <time>2022-08-04T18:11:10Z</time>
      </trkpt>
      <trkpt lat="48.41782" lon="7.29375">
        <ele>1010</ele>
        <time>2022-08-04T18:12:53Z</time>
      </trkpt>
      <trkpt lat="48.41746" lon="7.29377">
        <ele>1005</ele>
        <time>2022-08-04T18:13:42Z</time>
      </trkpt>
      <trkpt lat="48.41682" lon="7.2936">
        <ele>997</ele>
        <time>2022-08-04T18:15:08Z</time>
      </trkpt>
      <trkpt lat="48.41641" lon="7.2934">
        <ele>994</ele>
        <time>2022-08-04T18:16:06Z</time>
      </trkpt>
      <trkpt lat="48.41591" lon="7.29334">
        <ele>989</ele>
        <time>2022-08-04T18:17:13Z</time>
      </trkpt>
      <trkpt lat="48.41471" lon="7.29368">
        <ele>961</ele>
        <time>2022-08-04T18:19:56Z</time>
      </trkpt>
      <trkpt lat="48.41444" lon="7.29366">
        <ele>955</ele>
        <time>2022-08-04T18:20:32Z</time>
      </trkpt>
      <trkpt lat="48.41346" lon="7.29303">
        <ele>944</ele>
        <time>2022-08-04T18:22:54Z</time>
      </trkpt>
      <trkpt lat="48.41311" lon="7.29277">
        <ele>945</ele>
        <time>2022-08-04T18:23:46Z</time>
      </trkpt>
      <trkpt lat="48.41294" lon="7.29246">
        <ele>951</ele>
        <time>2022-08-04T18:24:22Z</time>
      </trkpt>
      <trkpt lat="48.41242" lon="7.29228">
        <ele>950</ele>
        <time>2022-08-04T18:25:33Z</time>
      </trkpt>
      <trkpt lat="48.41203" lon="7.29228">
        <ele>948</ele>
        <time>2022-08-04T18:26:25Z</time>
      </trkpt>
      <trkpt lat="48.41152" lon="7.29207">
        <ele>949</ele>
        <time>2022-08-04T18:27:35Z</time>
      </trkpt>
      <trkpt lat="48.41077" lon="7.2913">
        <ele>957</ele>
        <time>2022-08-04T18:29:37Z</time>
      </trkpt>
      <trkpt lat="48.41047" lon="7.29067">
        <ele>966</ele>
        <time>2022-08-04T18:30:45Z</time>
      </trkpt>
      <trkpt lat="48.41025" lon="7.29027">
        <ele>971</ele>
        <time>2022-08-04T18:31:31Z</time>
      </trkpt>
      <trkpt lat="48.40986" lon="7.28989">
        <ele>975</ele>
        <time>2022-08-04T18:32:33Z</time>
      </trkpt>
      <trkpt lat="48.40946" lon="7.2899">
        <ele>972</ele>
        <time>2022-08-04T18:33:27Z</time>
      </trkpt>
      <trkpt lat="48.40892" lon="7.28963">
        <ele>972</ele>
        <time>2022-08-04T18:34:43Z</time>
      </trkpt>
      <trkpt lat="48.40863" lon="7.28936">
        <ele>972</ele>
        <time>2022-08-04T18:35:28Z</time>
      </trkpt>
      <trkpt lat="48.40836" lon="7.28889">
        <ele>975</ele>
        <time>2022-08-04T18:36:23Z</time>
      </trkpt>
      <trkpt lat="48.408" lon="7.28811">
        <ele>977</ele>
        <time>2022-08-04T18:37:47Z</time>
      </trkpt>
      <trkpt lat="48.40754" lon="7.28652">
        <ele>985</ele>
        <time>2022-08-04T18:40:21Z</time>
      </trkpt>
      <trkpt lat="48.40751" lon="7.28596">
        <ele>989</ele>
        <time>2022-08-04T18:41:11Z</time>
      </trkpt>
      <trkpt lat="48.40764" lon="7.28474">
        <ele>998</ele>
        <time>2022-08-04T18:43:00Z</time>
      </trkpt>
      <trkpt lat="48.40761" lon="7.28306">
        <ele>1009</ele>
        <time>2022-08-04T18:45:29Z</time>
      </trkpt>
      <trkpt lat="48.40718" lon="7.28032">
        <ele>1020</ele>
        <time>2022-08-04T18:49:38Z</time>
      </trkpt>
      <trkpt lat="48.40706" lon="7.2793">
        <ele>1024</ele>
        <time>2022-08-04T18:51:10Z</time>
      </trkpt>
      <trkpt lat="48.40691" lon="7.27765">
        <ele>1028</ele>
        <time>2022-08-04T18:53:38Z</time>
      </trkpt>
      <trkpt lat="48.40694" lon="7.27659">
        <ele>1035</ele>
        <time>2022-08-04T18:55:12Z</time>
      </trkpt>
      <trkpt lat="48.40702" lon="7.27546">
        <ele>1049</ele>
        <time>2022-08-04T18:56:52Z</time>
      </trkpt>
      <trkpt lat="48.40664" lon="7.27519">
        <ele>1050</ele>
        <time>2022-08-04T18:57:48Z</time>
      </trkpt>
      <trkpt lat="48.40638" lon="7.27511">
        <ele>1049</ele>
        <time>2022-08-04T18:58:24Z</time>
      </trkpt>
      <trkpt lat="48.40601" lon="7.27479">
        <ele>1050</ele>
        <time>2022-08-04T18:59:21Z</time>
      </trkpt>
      <trkpt lat="48.40546" lon="7.27421">
        <ele>1057</ele>
        <time>2022-08-04T19:00:50Z</time>
      </trkpt>
      <trkpt lat="48.40509" lon="7.27408">
        <ele>1057</ele>
        <time>2022-08-04T19:01:41Z</time>
      </trkpt>
      <trkpt lat="48.40425" lon="7.27391">
        <ele>1064</ele>
        <time>2022-08-04T19:03:34Z</time>
      </trkpt>
      <trkpt lat="48.40381" lon="7.27387">
        <ele>1065</ele>
        <time>2022-08-04T19:04:33Z</time>
      </trkpt>
      <trkpt lat="48.40287" lon="7.27347">
        <ele>1071</ele>
        <time>2022-08-04T19:06:43Z</time>
      </trkpt>
      <trkpt lat="48.40234" lon="7.27344">
        <ele>1070</ele>
        <time>2022-08-04T19:07:54Z</time>
      </trkpt>
      <trkpt lat="48.40171" lon="7.27318">
        <ele>1070</ele>
        <time>2022-08-04T19:09:21Z</time>
      </trkpt>
      <trkpt lat="48.40122" lon="7.27294">
        <ele>1066</ele>
        <time>2022-08-04T19:10:30Z</time>
      </trkpt>
      <trkpt lat="48.401" lon="7.27256">
        <ele>1068</ele>
        <time>2022-08-04T19:11:15Z</time>
      </trkpt>
      <trkpt lat="48.40087" lon="7.27221">
        <ele>1070</ele>
        <time>2022-08-04T19:11:50Z</time>
      </trkpt>
      <trkpt lat="48.40091" lon="7.27162">
        <ele>1076</ele>
        <time>2022-08-04T19:12:43Z</time>
      </trkpt>
      <trkpt lat="48.4005" lon="7.27009">
        <ele>1076</ele>
        <time>2022-08-04T19:15:09Z</time>
      </trkpt>
      <trkpt lat="48.40014" lon="7.26971">
        <ele>1074</ele>
        <time>2022-08-04T19:16:08Z</time>
      </trkpt>
      <trkpt lat="48.40006" lon="7.26915">
        <ele>1075</ele>
        <time>2022-08-04T19:16:58Z</time>
      </trkpt>
      <trkpt lat="48.39993" lon="7.26897">
        <ele>1074</ele>
        <time>2022-08-04T19:17:22Z</time>
      </trkpt>
      <trkpt lat="48.39972" lon="7.26842">
        <ele>1073</ele>
        <time>2022-08-04T19:18:18Z</time>
      </trkpt>
      <trkpt lat="48.39962" lon="7.26797">
        <ele>1074</ele>
        <time>2022-08-04T19:19:00Z</time>
      </trkpt>
      <trkpt lat="48.39916" lon="7.26763">
        <ele>1076</ele>
        <time>2022-08-04T19:20:09Z</time>
      </trkpt>
      <trkpt lat="48.39855" lon="7.26697">
        <ele>1079</ele>
        <time>2022-08-04T19:21:49Z</time>
      </trkpt>
      <trkpt lat="48.39839" lon="7.26713">
        <ele>1080</ele>
        <time>2022-08-04T19:22:14Z</time>
      </trkpt>
      <trkpt lat="48.39729" lon="7.26696">
        <ele>1085</ele>
        <time>2022-08-04T19:24:42Z</time>
      </trkpt>
      <trkpt lat="48.39728" lon="7.26756">
        <ele>1086</ele>
        <time>2022-08-04T19:25:35Z</time>
      </trkpt>
      <trkpt lat="48.3973" lon="7.26795">
        <ele>1085</ele>
        <time>2022-08-04T19:26:10Z</time>
      </trkpt>
      <trkpt lat="48.39719" lon="7.26812">
        <ele>1086</ele>
        <time>2022-08-04T19:26:31Z</time>
      </trkpt>
      <trkpt lat="48.39675" lon="7.26835">
        <ele>1092</ele>
        <time>2022-08-04T19:27:33Z</time>
      </trkpt>
      <trkpt lat="48.39522" lon="7.26879">
        <ele>1099</ele>
        <time>2022-08-04T19:31:01Z</time>
      </trkpt>
      <trkpt lat="48.39494" lon="7.26894">
        <ele>1100</ele>
        <time>2022-08-04T19:31:41Z</time>
      </trkpt>
      <trkpt lat="48.39476" lon="7.26894">
        <ele>1100</ele>
        <time>2022-08-04T19:32:05Z</time>
      </trkpt>
      <trkpt lat="48.39447" lon="7.26869">
        <ele>1098</ele>
        <time>2022-08-04T19:32:49Z</time>
      </trkpt>
      <trkpt lat="48.39425" lon="7.26884">
        <ele>1097</ele>
        <time>2022-08-04T19:33:21Z</time>
      </trkpt>
      <trkpt lat="48.39408" lon="7.26887">
        <ele>1097</ele>
        <time>2022-08-04T19:33:44Z</time>
      </trkpt>
      <trkpt lat="48.39388" lon="7.26867">
        <ele>1096</ele>
        <time>2022-08-04T19:34:16Z</time>
      </trkpt>
      <trkpt lat="48.39344" lon="7.26844">
        <ele>1095</ele>
        <time>2022-08-04T19:35:18Z</time>
      </trkpt>
      <trkpt lat="48.39267" lon="7.26828">
        <ele>1088</ele>
        <time>2022-08-04T19:37:02Z</time>
      </trkpt>
      <trkpt lat="48.39218" lon="7.26808">
        <ele>1082</ele>
        <time>2022-08-04T19:38:10Z</time>
      </trkpt>
      <trkpt lat="48.39156" lon="7.26771">
        <ele>1072</ele>
        <time>2022-08-04T19:39:39Z</time>
      </trkpt>
      <trkpt lat="48.39126" lon="7.26746">
        <ele>1068</ele>
        <time>2022-08-04T19:40:25Z</time>
      </trkpt>
      <trkpt lat="48.39074" lon="7.26721">
        <ele>1063</ele>
        <time>2022-08-04T19:41:37Z</time>
      </trkpt>
      <trkpt lat="48.39042" lon="7.2669">
        <ele>1059</ele>
        <time>2022-08-04T19:42:28Z</time>
      </trkpt>
      <trkpt lat="48.38994" lon="7.26607">
        <ele>1050</ele>
        <time>2022-08-04T19:44:06Z</time>
      </trkpt>
      <trkpt lat="48.38916" lon="7.26447">
        <ele>1033</ele>
        <time>2022-08-04T19:47:02Z</time>
      </trkpt>
      <trkpt lat="48.38892" lon="7.26363">
        <ele>1024</ele>
        <time>2022-08-04T19:48:23Z</time>
      </trkpt>
      <trkpt lat="48.38873" lon="7.26265">
        <ele>1018</ele>
        <time>2022-08-04T19:49:53Z</time>
      </trkpt>
      <trkpt lat="48.38843" lon="7.26183">
        <ele>1015</ele>
        <time>2022-08-04T19:51:16Z</time>
      </trkpt>
      <trkpt lat="48.38795" lon="7.26032">
        <ele>1001</ele>
        <time>2022-08-04T19:53:45Z</time>
      </trkpt>
      <trkpt lat="48.38767" lon="7.26009">
        <ele>1001</ele>
        <time>2022-08-04T19:54:27Z</time>
      </trkpt>
      <trkpt lat="48.38729" lon="7.25927">
        <ele>992</ele>
        <time>2022-08-04T19:55:56Z</time>
      </trkpt>
      <trkpt lat="48.38693" lon="7.25864">
        <ele>983</ele>
        <time>2022-08-04T19:57:09Z</time>
      </trkpt>
      <trkpt lat="48.38661" lon="7.25836">
        <ele>980</ele>
        <time>2022-08-04T19:57:59Z</time>
      </trkpt>
      <trkpt lat="48.38638" lon="7.2578">
        <ele>979</ele>
        <time>2022-08-04T19:58:57Z</time>
      </trkpt>
      <trkpt lat="48.38599" lon="7.25754">
        <ele>979</ele>
        <time>2022-08-04T19:59:54Z</time>
      </trkpt>
      <trkpt lat="48.38568" lon="7.25757">
        <ele>980</ele>
        <time>2022-08-04T20:00:35Z</time>
      </trkpt>
      <trkpt lat="48.38524" lon="7.25779">
        <ele>980</ele>
        <time>2022-08-04T20:01:37Z</time>
      </trkpt>
      <trkpt lat="48.38488" lon="7.25776">
        <ele>977</ele>
        <time>2022-08-04T20:02:25Z</time>
      </trkpt>
      <trkpt lat="48.38417" lon="7.25775">
        <ele>971</ele>
        <time>2022-08-04T20:04:00Z</time>
      </trkpt>
      <trkpt lat="48.38374" lon="7.25781">
        <ele>968</ele>
        <time>2022-08-04T20:04:58Z</time>
      </trkpt>
      <trkpt lat="48.38321" lon="7.2569">
        <ele>968</ele>
        <time>2022-08-04T20:06:45Z</time>
      </trkpt>
      <trkpt lat="48.38283" lon="7.25687">
        <ele>973</ele>
        <time>2022-08-04T20:07:36Z</time>
      </trkpt>
      <trkpt lat="48.38238" lon="7.25646">
        <ele>978</ele>
        <time>2022-08-04T20:08:46Z</time>
      </trkpt>
      <trkpt lat="48.38192" lon="7.2563">
        <ele>982</ele>
        <time>2022-08-04T20:09:49Z</time>
      </trkpt>
      <trkpt lat="48.3815" lon="7.25599">
        <ele>985</ele>
        <time>2022-08-04T20:10:51Z</time>
      </trkpt>
      <trkpt lat="48.38136" lon="7.25563">
        <ele>985</ele>
        <time>2022-08-04T20:11:28Z</time>
      </trkpt>
      <trkpt lat="48.38124" lon="7.25517">
        <ele>986</ele>
        <time>2022-08-04T20:12:12Z</time>
      </trkpt>
      <trkpt lat="48.38118" lon="7.25462">
        <ele>985</ele>
        <time>2022-08-04T20:13:02Z</time>
      </trkpt>
      <trkpt lat="48.38129" lon="7.25402">
        <ele>983</ele>
        <time>2022-08-04T20:13:57Z</time>
      </trkpt>
      <trkpt lat="48.38137" lon="7.25302">
        <ele>979</ele>
        <time>2022-08-04T20:15:26Z</time>
      </trkpt>
      <trkpt lat="48.38099" lon="7.25298">
        <ele>978</ele>
        <time>2022-08-04T20:16:17Z</time>
      </trkpt>
      <trkpt lat="48.38056" lon="7.25268">
        <ele>973</ele>
        <time>2022-08-04T20:17:20Z</time>
      </trkpt>
      <trkpt lat="48.38027" lon="7.25257">
        <ele>968</ele>
        <time>2022-08-04T20:18:00Z</time>
      </trkpt>
      <trkpt lat="48.37993" lon="7.25208">
        <ele>967</ele>
        <time>2022-08-04T20:19:03Z</time>
      </trkpt>
      <trkpt lat="48.37897" lon="7.25127">
        <ele>956</ele>
        <time>2022-08-04T20:21:30Z</time>
      </trkpt>
      <trkpt lat="48.37857" lon="7.25101">
        <ele>949</ele>
        <time>2022-08-04T20:22:28Z</time>
      </trkpt>
      <trkpt lat="48.37797" lon="7.25092">
        <ele>937</ele>
        <time>2022-08-04T20:23:48Z</time>
      </trkpt>
      <trkpt lat="48.37744" lon="7.25047">
        <ele>931</ele>
        <time>2022-08-04T20:25:10Z</time>
      </trkpt>
      <trkpt lat="48.37702" lon="7.24997">
        <ele>926</ele>
        <time>2022-08-04T20:26:21Z</time>
      </trkpt>
      <trkpt lat="48.37716" lon="7.24898">
        <ele>923</ele>
        <time>2022-08-04T20:27:51Z</time>
      </trkpt>
      <trkpt lat="48.37727" lon="7.2484">
        <ele>917</ele>
        <time>2022-08-04T20:28:44Z</time>
      </trkpt>
      <trkpt lat="48.37755" lon="7.24796">
        <ele>918</ele>
        <time>2022-08-04T20:29:38Z</time>
      </trkpt>
      <trkpt lat="48.37801" lon="7.24752">
        <ele>921</ele>
        <time>2022-08-04T20:30:51Z</time>
      </trkpt>
      <trkpt lat="48.37867" lon="7.24619">
        <ele>911</ele>
        <time>2022-08-04T20:33:18Z</time>
      </trkpt>
      <trkpt lat="48.37893" lon="7.24543">
        <ele>901</ele>
        <time>2022-08-04T20:34:34Z</time>
      </trkpt>
      <trkpt lat="48.37931" lon="7.24498">
        <ele>907</ele>
        <time>2022-08-04T20:35:38Z</time>
      </trkpt>
      <trkpt lat="48.37946" lon="7.24464">
        <ele>915</ele>
        <time>2022-08-04T20:36:15Z</time>
      </trkpt>
      <trkpt lat="48.3793" lon="7.24385">
        <ele>913</ele>
        <time>2022-08-04T20:37:28Z</time>
      </trkpt>
      <trkpt lat="48.37886" lon="7.24298">
        <ele>903</ele>
        <time>2022-08-04T20:39:05Z</time>
      </trkpt>
      <trkpt lat="48.37849" lon="7.24257">
        <ele>890</ele>
        <time>2022-08-04T20:40:06Z</time>
      </trkpt>
      <trkpt lat="48.37827" lon="7.24228">
        <ele>882</ele>
        <time>2022-08-04T20:40:45Z</time>
      </trkpt>
      <trkpt lat="48.37797" lon="7.24112">
        <ele>871</ele>
        <time>2022-08-04T20:42:35Z</time>
      </trkpt>
      <trkpt lat="48.37802" lon="7.24071">
        <ele>872</ele>
        <time>2022-08-04T20:43:12Z</time>
      </trkpt>
      <trkpt lat="48.378" lon="7.2402">
        <ele>868</ele>
        <time>2022-08-04T20:43:58Z</time>
      </trkpt>
      <trkpt lat="48.37784" lon="7.23951">
        <ele>860</ele>
        <time>2022-08-04T20:45:02Z</time>
      </trkpt>
      <trkpt lat="48.37765" lon="7.2391">
        <ele>853</ele>
        <time>2022-08-04T20:45:47Z</time>
      </trkpt>
      <trkpt lat="48.37715" lon="7.23838">
        <ele>836</ele>
        <time>2022-08-04T20:47:19Z</time>
      </trkpt>
      <trkpt lat="48.37666" lon="7.23703">
        <ele>821</ele>
        <time>2022-08-04T20:49:35Z</time>
      </trkpt>
      <trkpt lat="48.37616" lon="7.23656">
        <ele>812</ele>
        <time>2022-08-04T20:50:54Z</time>
      </trkpt>
      <trkpt lat="48.37597" lon="7.23624">
        <ele>806</ele>
        <time>2022-08-04T20:51:32Z</time>
      </trkpt>
      <trkpt lat="48.37546" lon="7.23582">
        <ele>803</ele>
        <time>2022-08-04T20:52:50Z</time>
      </trkpt>
      <trkpt lat="48.3749" lon="7.23539">
        <ele>796</ele>
        <time>2022-08-04T20:54:14Z</time>
      </trkpt>
      <trkpt lat="48.37438" lon="7.23527">
        <ele>787</ele>
        <time>2022-08-04T20:55:24Z</time>
      </trkpt>
      <trkpt lat="48.37412" lon="7.23423">
        <ele>769</ele>
        <time>2022-08-04T20:57:02Z</time>
      </trkpt>
      <trkpt lat="48.37398" lon="7.23334">
        <ele>753</ele>
        <time>2022-08-04T20:58:23Z</time>
      </trkpt>
      <trkpt lat="48.37406" lon="7.23263">
        <ele>748</ele>
        <time>2022-08-04T20:59:27Z</time>
      </trkpt>
      <trkpt lat="48.37413" lon="7.23139">
        <ele>749</ele>
        <time>2022-08-04T21:01:17Z</time>
      </trkpt>
      <trkpt lat="48.37407" lon="7.23056">
        <ele>750</ele>
        <time>2022-08-04T21:02:31Z</time>
      </trkpt>
      <trkpt lat="48.37395" lon="7.22958">
        <ele>746</ele>
        <time>2022-08-04T21:04:00Z</time>
      </trkpt>
      <trkpt lat="48.37378" lon="7.22898">
        <ele>741</ele>
        <time>2022-08-04T21:04:58Z</time>
      </trkpt>
      <trkpt lat="48.37354" lon="7.22848">
        <ele>739</ele>
        <time>2022-08-04T21:05:52Z</time>
      </trkpt>
      <trkpt lat="48.37346" lon="7.22823">
        <ele>740</ele>
        <time>2022-08-04T21:06:17Z</time>
      </trkpt>
      <trkpt lat="48.37365" lon="7.22802">
        <ele>739</ele>
        <time>2022-08-04T21:06:48Z</time>
      </trkpt>
      <trkpt lat="48.37361" lon="7.22769">
        <ele>739</ele>
        <time>2022-08-04T21:07:18Z</time>
      </trkpt>
      <trkpt lat="48.37336" lon="7.22766">
        <ele>743</ele>
        <time>2022-08-04T21:07:52Z</time>
      </trkpt>
      <trkpt lat="48.37328" lon="7.22731">
        <ele>744</ele>
        <time>2022-08-04T21:08:24Z</time>
      </trkpt>
      <trkpt lat="48.37326" lon="7.22553">
        <ele>748</ele>
        <time>2022-08-04T21:11:02Z</time>
      </trkpt>
      <trkpt lat="48.37314" lon="7.22494">
        <ele>742</ele>
        <time>2022-08-04T21:11:57Z</time>
      </trkpt>
      <trkpt lat="48.37306" lon="7.22432">
        <ele>738</ele>
        <time>2022-08-04T21:12:53Z</time>
      </trkpt>
      <trkpt lat="48.37312" lon="7.22386">
        <ele>735</ele>
        <time>2022-08-04T21:13:34Z</time>
      </trkpt>
      <trkpt lat="48.37302" lon="7.22329">
        <ele>729</ele>
        <time>2022-08-04T21:14:27Z</time>
      </trkpt>
      <trkpt lat="48.37302" lon="7.22154">
        <ele>714</ele>
        <time>2022-08-04T21:17:02Z</time>
      </trkpt>
      <trkpt lat="48.37281" lon="7.22104">
        <ele>711</ele>
        <time>2022-08-04T21:17:54Z</time>
      </trkpt>
      <trkpt lat="48.3727" lon="7.22067">
        <ele>710</ele>
        <time>2022-08-04T21:18:30Z</time>
      </trkpt>
      <trkpt lat="48.37263" lon="7.21996">
        <ele>707</ele>
        <time>2022-08-04T21:19:34Z</time>
      </trkpt>
      <trkpt lat="48.37247" lon="7.21975">
        <ele>706</ele>
        <time>2022-08-04T21:20:02Z</time>
      </trkpt>
      <trkpt lat="48.37247" lon="7.21942">
        <ele>704</ele>
        <time>2022-08-04T21:20:31Z</time>
      </trkpt>
      <trkpt lat="48.37228" lon="7.21922">
        <ele>702</ele>
        <time>2022-08-04T21:21:02Z</time>
      </trkpt>
      <trkpt lat="48.37211" lon="7.21886">
        <ele>701</ele>
        <time>2022-08-04T21:21:41Z</time>
      </trkpt>
      <trkpt lat="48.372" lon="7.21911">
        <ele>700</ele>
        <time>2022-08-04T21:22:08Z</time>
      </trkpt>
      <trkpt lat="48.37089" lon="7.21905">
        <ele>686</ele>
        <time>2022-08-04T21:24:36Z</time>
      </trkpt>
      <trkpt lat="48.37063" lon="7.21783">
        <ele>708</ele>
        <time>2022-08-04T21:26:30Z</time>
      </trkpt>
      <trkpt lat="48.3703" lon="7.21687">
        <ele>712</ele>
        <time>2022-08-04T21:28:06Z</time>
      </trkpt>
      <trkpt lat="48.37021" lon="7.21639">
        <ele>714</ele>
        <time>2022-08-04T21:28:50Z</time>
      </trkpt>
      <trkpt lat="48.36997" lon="7.21572">
        <ele>708</ele>
        <time>2022-08-04T21:29:57Z</time>
      </trkpt>
      <trkpt lat="48.36948" lon="7.21469">
        <ele>685</ele>
        <time>2022-08-04T21:31:50Z</time>
      </trkpt>
      <trkpt lat="48.36888" lon="7.21275">
        <ele>656</ele>
        <time>2022-08-04T21:34:59Z</time>
      </trkpt>
      <trkpt lat="48.36855" lon="7.21128">
        <ele>637</ele>
        <time>2022-08-04T21:37:17Z</time>
      </trkpt>
      <trkpt lat="48.36832" lon="7.21048">
        <ele>628</ele>
        <time>2022-08-04T21:38:34Z</time>
      </trkpt>
      <trkpt lat="48.36815" lon="7.21003">
        <ele>619</ele>
        <time>2022-08-04T21:39:20Z</time>
      </trkpt>
      <trkpt lat="48.36798" lon="7.20943">
        <ele>613</ele>
        <time>2022-08-04T21:40:18Z</time>
      </trkpt>
      <trkpt lat="48.36728" lon="7.20784">
        <ele>584</ele>
        <time>2022-08-04T21:43:07Z</time>
      </trkpt>
      <trkpt lat="48.36684" lon="7.20669">
        <ele>578</ele>
        <time>2022-08-04T21:45:05Z</time>
      </trkpt>
      <trkpt lat="48.36639" lon="7.20579">
        <ele>576</ele>
        <time>2022-08-04T21:46:45Z</time>
      </trkpt>
      <trkpt lat="48.36581" lon="7.20455">
        <ele>580</ele>
        <time>2022-08-04T21:48:59Z</time>
      </trkpt>
      <trkpt lat="48.36547" lon="7.20406">
        <ele>575</ele>
        <time>2022-08-04T21:50:02Z</time>
      </trkpt>
      <trkpt lat="48.36534" lon="7.20372">
        <ele>573</ele>
        <time>2022-08-04T21:50:37Z</time>
      </trkpt>
      <trkpt lat="48.36478" lon="7.20318">
        <ele>563</ele>
        <time>2022-08-04T21:52:05Z</time>
      </trkpt>
      <trkpt lat="48.36433" lon="7.20251">
        <ele>553</ele>
        <time>2022-08-04T21:53:30Z</time>
      </trkpt>
      <trkpt lat="48.3642" lon="7.20236">
        <ele>550</ele>
        <time>2022-08-04T21:53:52Z</time>
      </trkpt>
      <trkpt lat="48.36411" lon="7.20206">
        <ele>546</ele>
        <time>2022-08-04T21:54:21Z</time>
      </trkpt>
      <trkpt lat="48.36376" lon="7.20139">
        <ele>541</ele>
        <time>2022-08-04T21:55:36Z</time>
      </trkpt>
      <trkpt lat="48.36368" lon="7.20036">
        <ele>541</ele>
        <time>2022-08-04T21:57:08Z</time>
      </trkpt>
      <trkpt lat="48.36368" lon="7.19974">
        <ele>540</ele>
        <time>2022-08-04T21:58:03Z</time>
      </trkpt>
      <trkpt lat="48.36382" lon="7.1994">
        <ele>538</ele>
        <time>2022-08-04T21:58:39Z</time>
      </trkpt>
      <trkpt lat="48.36371" lon="7.19926">
        <ele>539</ele>
        <time>2022-08-04T21:58:58Z</time>
      </trkpt>
    </trkseg>
  </trk>
</gpx>